GW3798 Weather Reports


Display with metric or nautical units.
time (UTC)temp
F
wind
direction
speed
MPH
gust
MPH
rain 1hr
in
rain 24hr
in
rain mn
in
humidity
%
barometer
mb
20260504231541 42 9 14.0 22.0 0.00 0.00 0.00 61 1009.4
20260504230047 42 355 15.0 21.0 0.00 0.00 0.00 60 1009.2
20260504224548 42 360 15.0 22.0 0.00 0.00 0.00 60 1009.2
20260504223042 43 336 13.0 22.0 0.00 0.00 0.00 58 1009.0
20260504221542 44 23 16.0 22.0 0.00 0.00 0.00 55 1009.0
20260504220048 44 328 18.0 26.0 0.00 0.00 0.00 54 1008.9
20260504214549 46 360 15.0 24.0 0.00 0.00 0.00 52 1008.9
20260504213048 46 286 13.0 22.0 0.00 0.00 0.00 55 1009.1
20260504211541 46 327 10.0 20.0 0.00 0.00 0.00 55 1009.3
20260504210041 46 280 13.0 21.0 0.00 0.00 0.00 54 1009.4
20260504204541 46 341 17.0 23.0 0.00 0.00 0.00 54 1009.3
20260504203052 48 342 16.0 24.0 0.00 0.00 0.00 53 1009.2
20260504201544 48 350 14.0 23.0 0.00 0.00 0.00 54 1009.3
20260504200049 47 355 13.0 21.0 0.00 0.00 0.00 55 1009.2
20260504194545 47 338 13.0 22.0 0.00 0.00 0.00 57 1009.4
20260504193040 46 321 12.0 24.0 0.00 0.00 0.00 59 1009.5
20260504191606 46 303 11.0 22.0 0.00 0.00 0.00 57 1009.6
20260504190048 46 295 14.0 22.0 0.00 0.00 0.00 59 1009.8
20260504184541 46 275 16.0 23.0 0.00 0.00 0.00 59 1009.6
20260504183041 46 324 9.0 18.0 0.00 0.00 0.00 60 1009.7
20260504181551 45 325 10.0 20.0 0.00 0.00 0.00 62 1009.7
20260504180048 45 5 13.0 22.0 0.00 0.00 0.00 60 1009.7
20260504174544 45 350 14.0 25.0 0.00 0.00 0.00 61 1009.8